Location: Gull Harbor
(47.1000°N, 122.9000°W)
Time: 23:25:39
(UTC-07:00)

Tiangong - Pass Details

Date: 21 April 2024
Orbit: 372 x 376 km, 41.5° (Epoch: 19 May)

Event Time Altitude Azimuth Distance (km) Brightness Sun altitude
Rises 20:24:10 0° 240° (WSW) 2,262 2.4 -3.1°
Reaches altitude 10° 20:26:28 10° 227° (SW) 1,404 1.1 -3.5°
Maximum altitude 20:29:07 25° 170° (S) 828 -0.7 -3.9°
Drops below altitude 10° 20:31:46 10° 112° (ESE) 1,395 0.0 -4.3°
Enters shadow 20:32:42 - 105° (ESE) 1,732 0.5 -4.5°
